GW0787 Weather Reports


Display with metric or nautical units.
time (UTC)temp
F
wind
direction
speed
MPH
gust
MPH
rain 1hr
in
rain 24hr
in
rain mn
in
humidity
%
barometer
mb
20260902234607 65 120 0.0 6.0 0.00 0.15 0.01 54 1003.4
20260902233054 65 231 2.0 8.0 0.00 0.15 0.01 50 1003.4
20260902231553 65 246 1.0 6.0 0.00 0.15 0.01 55 1003.4
20260902230054 64 229 5.0 17.0 0.00 0.15 0.01 53 1003.4
20260902224607 63 214 1.0 5.0 0.00 0.15 0.01 73 1003.4
20260902223048 65 137 1.0 11.0 0.00 0.15 0.01 61 1003.3
20260902221547 67 219 6.0 10.0 0.00 0.15 0.01 49 1002.9
20260902220050 67 269 1.0 15.0 0.00 0.15 0.01 48 1002.9
20260902214544 68 211 4.0 12.0 0.00 0.15 0.01 46 1003.0
20260902213045 69 245 3.0 9.0 0.00 0.15 0.01 48 1003.0
20260902211542 71 216 5.0 13.0 0.00 0.15 0.01 45 1003.1
20260902210041 72 263 2.0 12.0 0.00 0.15 0.01 41 1003.2
20260902204541 73 273 1.0 11.0 0.00 0.15 0.01 41 1003.2
20260902203037 72 212 1.0 11.0 0.00 0.15 0.01 44 1003.4
20260902201537 70 326 0.0 4.0 0.00 0.15 0.01 43 1003.4
20260902200048 69 301 2.0 9.0 0.00 0.15 0.01 45 1003.6
20260902194530 69 15 2.0 5.0 0.00 0.15 0.01 49 1004.0
20260902193023 67 220 2.0 4.0 0.00 0.15 0.01 49 1004.3
20260902191520 66 241 0.0 3.0 0.00 0.15 0.01 53 1004.6
20260902190030 66 48 1.0 5.0 0.00 0.15 0.01 54 1004.9
20260902184518 67 314 2.0 5.0 0.01 0.15 0.01 48 1005.0
20260902183014 66 85 2.0 7.0 0.01 0.15 0.01 51 1005.2
20260902181510 65 47 3.0 7.0 0.01 0.15 0.01 52 1005.2
20260902180007 64 99 3.0 11.0 0.01 0.15 0.01 56 1005.2
20260902174501 63 87 3.0 12.0 0.00 0.14 0.00 60 1005.4
20260902173058 62 100 3.0 12.0 0.00 0.14 0.00 63 1005.5
20260902171554 60 131 3.0 13.0 0.00 0.14 0.00 67 1005.4
20260902170050 58 79 1.0 9.0 0.00 0.14 0.00 76 1005.5
20260902164546 57 70 3.0 6.0 0.00 0.14 0.00 85 1005.6
20260902163044 57 166 1.0 3.0 0.00 0.14 0.00 88 1005.7
20260902161544 55 11 3.0 8.0 0.00 0.14 0.00 89 1005.8
20260902160036 54 118 1.0 4.0 0.00 0.14 0.00 89 1006.0
20260902154533 54 215 0.0 3.0 0.00 0.14 0.00 89 1006.1
20260902153037 53 216 0.0 5.0 0.00 0.14 0.00 89 1006.2
20260902151530 51 211 0.0 1.0 0.00 0.14 0.00 89 1006.4
20260902150032 50 212 0.0 3.0 0.00 0.14 0.00 89 1006.8
20260902144528 49 211 0.0 3.0 0.00 0.14 0.00 90 1006.8
20260902143027 49 211 0.0 2.0 0.00 0.14 0.00 90 1006.8
20260902141534 49 210 0.0 0.0 0.00 0.14 0.00 90 1006.8
20260902140026 49 211 0.0 1.0 0.00 0.14 0.00 90 1006.7
20260902134527 49 211 0.0 0.0 0.00 0.14 0.00 90 1006.9
20260902133021 50 212 0.0 1.0 0.00 0.14 0.00 90 1006.6
20260902131525 50 211 0.0 1.0 0.00 0.14 0.00 90 1006.7
20260902130019 50 211 0.0 2.0 0.00 0.14 0.00 90 1006.8
20260902124519 50 214 0.0 3.0 0.00 0.14 0.00 90 1006.8
20260902123018 50 223 0.0 2.0 0.00 0.14 0.00 90 1006.6
20260902121517 50 224 0.0 1.0 0.00 0.14 0.00 90 1006.5
20260902120021 51 140 1.0 4.0 0.00 0.14 0.00 90 1006.6
20260902114523 51 187 0.0 3.0 0.00 0.14 0.00 90 1006.7
20260902113012 51 185 0.0 2.0 0.00 0.14 0.00 90 1007.0
20260902111511 51 191 1.0 3.0 0.00 0.14 0.00 90 1007.4
20260902110014 51 191 1.0 3.0 0.00 0.14 0.00 90 1007.3
20260902104509 51 190 0.0 2.0 0.00 0.14 0.00 90 1007.3
20260902103012 51 190 0.0 2.0 0.00 0.14 0.00 90 1007.3
20260902101507 51 191 0.0 1.0 0.00 0.14 0.00 90 1007.5
20260902100006 51 224 2.0 6.0 0.00 0.14 0.00 90 1007.6
20260902094504 51 158 0.0 2.0 0.00 0.14 0.00 90 1007.2
20260902093001 52 154 0.0 2.0 0.00 0.14 0.00 90 1007.3
20260902091600 52 218 0.0 3.0 0.00 0.14 0.00 90 1007.5
20260902090107 52 110 0.0 4.0 0.00 0.14 0.00 90 1007.4
20260902084600 53 220 0.0 4.0 0.00 0.14 0.00 90 1008.1
20260902083055 54 216 0.0 4.0 0.00 0.14 0.00 90 1007.9
20260902081555 54 219 1.0 4.0 0.00 0.14 0.00 90 1008.0
20260902080104 53 56 4.0 12.0 0.00 0.14 0.00 90 1007.9
20260902074548 52 158 0.0 3.0 0.00 0.14 0.00 90 1008.1
20260902073048 52 155 0.0 2.0 0.00 0.14 0.00 90 1008.4
20260902071544 52 165 0.0 3.0 0.00 0.14 0.00 89 1008.5
20260902070044 52 201 0.0 2.0 0.00 0.14 0.00 90 1008.3
20260902064547 52 158 0.0 3.0 0.00 0.14 0.14 90 1008.2
20260902063039 53 170 1.0 5.0 0.00 0.14 0.14 90 1008.1
20260902061546 53 224 1.0 3.0 0.00 0.14 0.14 90 1008.1
20260902060043 53 216 2.0 4.0 0.00 0.14 0.14 90 1008.0
20260902054538 53 153 0.0 4.0 0.00 0.14 0.14 90 1008.0
20260902053039 54 191 1.0 3.0 0.00 0.14 0.14 89 1008.1
20260902051537 54 211 0.0 3.0 0.00 0.14 0.14 90 1008.2
20260902050039 55 212 0.0 1.0 0.00 0.14 0.14 89 1008.0
20260902044536 55 212 0.0 1.0 0.00 0.14 0.14 89 1008.0
20260902043035 56 211 0.0 2.0 0.00 0.14 0.14 89 1008.0
20260902041535 56 212 0.0 2.0 0.00 0.14 0.14 89 1007.9
20260902040034 57 212 1.0 3.0 0.01 0.14 0.14 89 1007.8
20260902034534 57 204 0.0 2.0 0.01 0.14 0.14 89 1007.6
20260902033040 58 110 0.0 2.0 0.11 0.14 0.14 89 1007.5
20260902031534 58 81 0.0 3.0 0.12 0.14 0.14 88 1007.3
20260902030032 59 102 0.0 3.0 0.13 0.13 0.13 87 1007.2
20260902024532 60 97 0.0 4.0 0.13 0.13 0.13 82 1007.0
20260902023030 62 174 0.0 4.0 0.03 0.03 0.03 78 1007.0
20260902021535 63 164 0.0 2.0 0.02 0.02 0.02 77 1006.5
20260902020028 65 147 0.0 5.0 0.00 0.00 0.00 70 1006.2
20260902014536 66 125 0.0 3.0 0.00 0.00 0.00 69 1006.1
20260902013026 68 208 1.0 9.0 0.00 0.00 0.00 63 1005.9
20260902011534 70 153 5.0 11.0 0.00 0.00 0.00 53 1005.4
20260902010041 71 201 0.0 4.0 0.00 0.00 0.00 49 1005.1
20260902004532 73 238 0.0 7.0 0.00 0.00 0.00 46 1004.8
20260902003024 75 217 2.0 7.0 0.00 0.00 0.00 44 1004.7
20260902001525 78 191 4.0 8.0 0.00 0.00 0.00 39 1004.4
20260902000032 79 218 3.0 8.0 0.00 0.00 0.00 37 1004.2